Location: Newark
(35.9667°S, 26.6167°E)
Time: 13:48:56
(UTC+00:00)

ISS - Visible Passes

Search period start: 15 October 2019 00:00
Search period end: 25 October 2019 00:00
Orbit: 411 x 421 km, 51.6° (Epoch: 15 October)

Date Brightness Start Highest point End Pass type
(mag) Time Alt. Az. Time Alt. Az. Time Alt. Az.
15 Oct -2.4 02:11:15 10° SW 02:14:31 41° SE 02:17:47 10° ENE visible
16 Oct -1.5 01:24:20 19° S 01:25:51 25° SSE 01:28:45 10° E visible
16 Oct -2.9 02:59:31 10° WSW 03:02:36 32° NW 03:05:41 10° NNE visible
17 Oct -0.4 00:38:53 12° ESE 00:38:53 12° ESE 00:39:28 10° ESE visible
17 Oct -3.8 02:11:53 19° WSW 02:14:08 63° NW 02:17:30 10° NE visible
17 Oct -2.1 17:15:45 10° N 17:17:59 17° NE 17:18:49 15° ENE visible
17 Oct -0.9 18:51:15 10° WNW 18:51:52 14° WNW 18:51:52 14° WNW visible
18 Oct -2.3 01:26:58 33° ENE 01:26:58 33° ENE 01:28:59 10° NE visible
18 Oct -1.6 03:01:27 10° WNW 03:01:52 10° NW 03:02:19 10° NW visible
18 Oct -3.7 18:02:30 10° NW 18:05:52 77° SW 18:07:23 30° SE visible
19 Oct -1.4 02:15:34 12° N 02:15:34 12° N 02:16:01 10° N visible
19 Oct -3.7 17:14:04 10° NNW 17:17:20 54° NE 17:20:41 10° ESE visible
19 Oct -1.0 18:51:53 10° WSW 18:54:19 18° SSW 18:55:22 16° S visible
20 Oct -1.6 18:02:39 10° W 18:05:36 27° SSW 18:08:33 10° SSE visible
21 Oct -2.5 17:13:41 10° WNW 17:16:56 45° SW 17:20:13 10° SE visible
22 Oct -0.7 18:03:45 10° WSW 18:05:32 13° SSW 18:07:20 10° S visible
23 Oct -1.0 17:14:14 10° WSW 17:16:45 19° SSW 17:19:18 10° SSE visible
